Погода в Джэксонвилле

США     30°16′44″N   81°24′11″W
темп.,
°C
ветер,
м/с
пор.,
м/с
влажн.,
%
обл.,
%
осадки,
мм/ч
давл.,
гПа
погр.,
м
15 мая, сб
сб1523:00+19св48440 0.0 1023694
02:00+19св49440 0.0 1022571
05:00+18св49470 0.0 1022518
08:00+20св48450 0.0 10241420
11:00+24св68350 0.0 10251920
14:00+25всв67331 0.0 10242049
17:00+24всв56370 0.0 10231831
20:00+20всв36450 0.0 1023800
16 мая, вс
вс1623:00+19в26500 0.0 1024291
02:00+18всв255516 0.0 1023121
05:00+18в2557100 0.0 1022128
08:00+21всв265165 0.0 1024709
11:00+25в46375 0.0 10251929
14:00+26в5535100 0.0 10242030
17:00+25в45390 0.0 10231814
20:00+22в36542 0.0 1023860
17 мая, пн
пн1723:00+20в26645 0.0 1023319
02:00+19в23695 0.0 102284
05:00+19всв23716 0.0 102165
08:00+22в256099 0.0 1022688
11:00+26в464288 0.0 10231586
14:00+27в564094 0.0 10221710
17:00+26в464796 0.0 10211586
20:00+23в466120 0.0 1022824
18 мая, вт
вт1823:00+22в37725 0.0 1022565
02:00+21в38733 0.0 1021500
05:00+21в38745 0.0 1021480
08:00+23в47665 0.0 10221109
11:00+26в585013 0.0 10231549
14:00+28в684729 0.0 10221727
17:00+26в57515 0.0 10221568
20:00+23в48670 0.0 10221045
19 мая, ср
ср1923:00+23в49710 0.1 1023970
02:00+22в497510 0.2 1022702
05:00+21в39771 0.1 1021624
08:00+24в49650 0.2 10231237
11:00+26в675167 0.1 10241677
14:00+26в674585 0.1 10241928
17:00+26в564732 0.0 10231747
20:00+23в485935 0.0 10231214